STARLINK-37101, 68234

Orbit data source: Space-Track

STARLINK-37101, 68234 is a payload satellite owned by SpaceX/Seattle (US) in LEO that was launched on Tue, 17 Mar 2026 UTC via an FALCON 9 launch vehicle from the Air Force Eastern Test Range (AFETR). Payload-class satellites include a variety of spacecraft equipped with specific instruments for various scientific and technological missions. These include communications satellites like Starlink; space stations such as the ISS; scientific satellites like the Hubble; Earth observation satellites from companies like Planet Labs, Umbra, and HawkEye 360; GPS; miniature CubeSats for education and research; and military/defense satellites.

Loading next visibility...
Identifier
68234, 2026-054C
Orbit
LEO
Country
Flag of USUS
Related business
Manufacturer
SpaceX/Seattle
Mission
Operational spacecraft
Bus & Motor
STARLINK V2MO, Unknown motor
Mass
575 kg wet, ~530 kg dry
Launch date (UTC)
2026-03-17 (2 months ago)
Launch vehicle
FALCON 9
Launch site
Air Force Eastern Test Range (AFETR)
Object type
Payload
Rocket body
Debris
Shape & HBR
Unknown shape, 17.7 m
Radar Cross Section
RCS unknown

Expand to show TLE details & history
Last TLE update: 9 hours ago

TLE from 9 hours ago
0 STARLINK-37101
1 68234U 26054C   26145.40689718  .00037969  00000-0  87685-3 0  9992
2 68234  53.1590 298.7226 0001624  81.6726 278.4464 15.42186643 10766
Epoch: 2026-05-25T09:45Z
TLE epoch observation values (Epoch: 2026-05-25T09:45:55.916Z)
Latitude
-0.00002°
Longitude
-90.75553°
Altitude
440.399 km
Speed
7.649 km/s
True Right ascension
19h 54m 53s
True Declination
0° 00' 00"
Sunlit
Object was in full shadow at epoch
Visualization orbit readout
Latitude
Unknown
Longitude
Unknown
Altitude
Unknown
Speed
Unknown
Apparent Right ascension
Unknown
Apparent Declination
Unknown
Sunlit
N/A
Visualization observer readout
Local Sidereal Time
03:49:46
Azimuth
Unknown
Elevation
Unknown
Doppler factor
Unknown
Orbital elements
Apogee altitude
441.022 km
Perigee altitude
438.808 km
Semi-major axis
6,818.052 km
Eccentricity
0.00016
Inclination
53.159°
RAAN
298.7226°
Arg. of periapsis
81.6726°
True anomaly
278.42799°
Mean anomaly
278.4464°
Eccentric anomaly
278.4372°
Mean motion
3.85525 °/min
Orbital period
93.38 mins
BSTAR
0.00087685
Loading maneuver chart data...
Computing Atmospheric mass density...
Loading historical data...
Loading historical data...
Loading historical data...
Loading historical data...
Loading historical data...
Loading historical data...
Loading historical data...

Documentation

Showing up to 5 results
|